| time (UTC) | temp F | wind direction | speed MPH | gust MPH | rain 1hr in | rain 24hr in | rain mn in | humidity % | barometer mb |
| 20260906221547 | 98 | 219 | 1.0 | 7.0 | 0.00 | 0.00 | 0.00 | 27 | 1010.6 |
| 20260906220046 | 98 | 221 | 2.0 | 4.0 | 0.00 | 0.00 | 0.00 | 27 | 1010.5 |
| 20260906214543 | 98 | 275 | 1.0 | 6.0 | 0.00 | 0.00 | 0.00 | 26 | 1010.7 |
| 20260906213047 | 98 | 202 | 2.0 | 6.0 | 0.00 | 0.00 | 0.00 | 27 | 1011.0 |
| 20260906211542 | 99 | 252 | 1.0 | 4.0 | 0.00 | 0.00 | 0.00 | 27 | 1011.1 |
| 20260906210039 | 98 | 194 | 1.0 | 4.0 | 0.00 | 0.00 | 0.00 | 28 | 1011.4 |
| 20260906204558 | 98 | 219 | 0.0 | 8.0 | 0.00 | 0.00 | 0.00 | 28 | 1011.6 |
| 20260906203039 | 98 | 222 | 1.0 | 7.0 | 0.00 | 0.00 | 0.00 | 29 | 1011.8 |
| 20260906201555 | 97 | 250 | 2.0 | 5.0 | 0.00 | 0.00 | 0.00 | 29 | 1012.0 |
| 20260906200043 | 97 | 215 | 1.0 | 4.0 | 0.00 | 0.00 | 0.00 | 31 | 1012.2 |
| 20260906194541 | 96 | 248 | 2.0 | 7.0 | 0.00 | 0.00 | 0.00 | 32 | 1012.2 |
| 20260906193047 | 96 | 241 | 2.0 | 4.0 | 0.00 | 0.00 | 0.00 | 32 | 1012.4 |
| 20260906191544 | 96 | 214 | 2.0 | 5.0 | 0.00 | 0.00 | 0.00 | 33 | 1012.6 |
| 20260906190044 | 95 | 227 | 3.0 | 6.0 | 0.00 | 0.00 | 0.00 | 33 | 1012.6 |
| 20260906184554 | 95 | 236 | 2.0 | 5.0 | 0.00 | 0.00 | 0.00 | 33 | 1012.8 |
| 20260906183045 | 94 | 220 | 3.0 | 6.0 | 0.00 | 0.00 | 0.00 | 34 | 1013.0 |
| 20260906181545 | 94 | 243 | 2.0 | 5.0 | 0.00 | 0.00 | 0.00 | 35 | 1013.3 |
| 20260906180057 | 94 | 210 | 1.0 | 6.0 | 0.00 | 0.00 | 0.00 | 35 | 1013.3 |
| 20260906174545 | 93 | 243 | 1.0 | 6.0 | 0.00 | 0.00 | 0.00 | 38 | 1013.6 |
| 20260906173045 | 92 | 234 | 2.0 | 6.0 | 0.00 | 0.00 | 0.00 | 39 | 1013.9 |
| 20260906171539 | 92 | 239 | 1.0 | 5.0 | 0.00 | 0.00 | 0.00 | 40 | 1014.0 |
| 20260906170044 | 91 | 221 | 1.0 | 4.0 | 0.00 | 0.00 | 0.00 | 41 | 1014.2 |
| 20260906164546 | 90 | 214 | 2.0 | 5.0 | 0.00 | 0.00 | 0.00 | 43 | 1014.3 |
| 20260906163045 | 90 | 221 | 2.0 | 4.0 | 0.00 | 0.00 | 0.00 | 42 | 1014.4 |
| 20260906161548 | 89 | 239 | 2.0 | 5.0 | 0.00 | 0.00 | 0.00 | 44 | 1014.3 |
| 20260906160050 | 89 | 219 | 1.0 | 3.0 | 0.00 | 0.00 | 0.00 | 46 | 1014.4 |
| 20260906154547 | 88 | 224 | 0.0 | 2.0 | 0.00 | 0.00 | 0.00 | 48 | 1014.3 |
| 20260906153042 | 87 | 32 | 1.0 | 3.0 | 0.00 | 0.00 | 0.00 | 50 | 1014.2 |
| 20260906151542 | 87 | 208 | 0.0 | 3.0 | 0.00 | 0.00 | 0.00 | 53 | 1014.0 |
| 20260906150046 | 86 | 208 | 0.0 | 3.0 | 0.00 | 0.00 | 0.00 | 54 | 1014.0 |
| 20260906144544 | 85 | 360 | 0.0 | 2.0 | 0.00 | 0.00 | 0.00 | 55 | 1013.9 |
| 20260906143043 | 84 | 0 | 0.0 | 1.0 | 0.00 | 0.00 | 0.00 | 56 | 1014.0 |
| 20260906141544 | 84 | 222 | 1.0 | 3.0 | 0.00 | 0.00 | 0.00 | 57 | 1013.9 |
| 20260906140043 | 83 | 198 | 0.0 | 1.0 | 0.00 | 0.00 | 0.00 | 59 | 1014.0 |
| 20260906134556 | 82 | 0 | 0.0 | 1.0 | 0.00 | 0.00 | 0.00 | 60 | 1014.0 |
| 20260906133039 | 81 | 0 | 0.0 | 0.0 | 0.00 | 0.00 | 0.00 | 62 | 1014.0 |
| 20260906131544 | 79 | 0 | 0.0 | 0.0 | 0.00 | 0.00 | 0.00 | 64 | 1013.9 |
| 20260906130045 | 78 | 0 | 0.0 | 0.0 | 0.00 | 0.00 | 0.00 | 67 | 1013.9 |
| 20260906124544 | 76 | 0 | 0.0 | 0.0 | 0.00 | 0.00 | 0.00 | 68 | 1013.8 |
| 20260906123046 | 76 | 0 | 0.0 | 0.0 | 0.00 | 0.00 | 0.00 | 68 | 1013.7 |
| 20260906121548 | 76 | 0 | 0.0 | 0.0 | 0.00 | 0.00 | 0.00 | 68 | 1013.6 |
| 20260906120053 | 76 | 0 | 0.0 | 0.0 | 0.00 | 0.00 | 0.00 | 67 | 1013.4 |
| 20260906114539 | 76 | 0 | 0.0 | 0.0 | 0.00 | 0.00 | 0.00 | 67 | 1013.3 |
| 20260906113049 | 76 | 0 | 0.0 | 0.0 | 0.00 | 0.00 | 0.00 | 67 | 1013.1 |
| 20260906111549 | 76 | 0 | 0.0 | 0.0 | 0.00 | 0.00 | 0.00 | 67 | 1013.0 |
| 20260906110041 | 76 | 0 | 0.0 | 0.0 | 0.00 | 0.00 | 0.00 | 67 | 1012.9 |
| 20260906104539 | 76 | 0 | 0.0 | 0.0 | 0.00 | 0.00 | 0.00 | 67 | 1012.7 |
| 20260906103038 | 77 | 0 | 0.0 | 0.0 | 0.00 | 0.00 | 0.00 | 67 | 1012.7 |
| 20260906101546 | 77 | 0 | 0.0 | 0.0 | 0.00 | 0.00 | 0.00 | 65 | 1012.8 |
| 20260906100041 | 78 | 0 | 0.0 | 0.0 | 0.00 | 0.00 | 0.00 | 64 | 1012.5 |
| 20260906094542 | 78 | 0 | 0.0 | 0.0 | 0.00 | 0.00 | 0.00 | 63 | 1012.3 |
| 20260906093041 | 79 | 0 | 0.0 | 0.0 | 0.00 | 0.00 | 0.00 | 62 | 1012.2 |
| 20260906091544 | 79 | 0 | 0.0 | 0.0 | 0.00 | 0.00 | 0.00 | 61 | 1012.1 |
| 20260906090043 | 80 | 0 | 0.0 | 0.0 | 0.00 | 0.00 | 0.00 | 59 | 1012.2 |
| 20260906084548 | 81 | 0 | 0.0 | 0.0 | 0.00 | 0.00 | 0.00 | 59 | 1012.0 |
| 20260906083041 | 81 | 0 | 0.0 | 1.0 | 0.00 | 0.00 | 0.00 | 58 | 1012.1 |
| 20260906081543 | 81 | 0 | 0.0 | 3.0 | 0.00 | 0.00 | 0.00 | 58 | 1012.1 |
| 20260906080042 | 81 | 0 | 0.0 | 2.0 | 0.00 | 0.00 | 0.00 | 59 | 1012.1 |
| 20260906074540 | 81 | 0 | 0.0 | 1.0 | 0.00 | 0.00 | 0.00 | 60 | 1012.2 |
| 20260906073043 | 80 | 134 | 0.0 | 1.0 | 0.00 | 0.00 | 0.00 | 61 | 1012.3 |
| 20260906071557 | 79 | 0 | 0.0 | 0.0 | 0.00 | 0.00 | 0.00 | 61 | 1012.3 |
| 20260906070039 | 79 | 0 | 0.0 | 0.0 | 0.00 | 0.00 | 0.00 | 60 | 1012.3 |
| 20260906064539 | 80 | 0 | 0.0 | 0.0 | 0.00 | 0.00 | 0.00 | 59 | 1012.5 |
| 20260906063041 | 80 | 0 | 0.0 | 0.0 | 0.00 | 0.00 | 0.00 | 58 | 1012.4 |
| 20260906061540 | 80 | 0 | 0.0 | 0.0 | 0.00 | 0.00 | 0.00 | 58 | 1012.4 |
| 20260906060045 | 81 | 0 | 0.0 | 0.0 | 0.00 | 0.00 | 0.00 | 57 | 1012.6 |
| 20260906054545 | 81 | 0 | 0.0 | 0.0 | 0.00 | 0.00 | 0.00 | 55 | 1012.5 |
| 20260906053050 | 82 | 0 | 0.0 | 0.0 | 0.00 | 0.00 | 0.00 | 55 | 1012.4 |
| 20260906051540 | 82 | 0 | 0.0 | 0.0 | 0.00 | 0.00 | 0.00 | 53 | 1012.6 |
| 20260906050045 | 83 | 0 | 0.0 | 0.0 | 0.00 | 0.00 | 0.00 | 52 | 1012.6 |
| 20260906044543 | 83 | 0 | 0.0 | 0.0 | 0.00 | 0.00 | 0.00 | 51 | 1012.5 |
| 20260906043041 | 84 | 0 | 0.0 | 0.0 | 0.00 | 0.00 | 0.00 | 50 | 1012.3 |
| 20260906041538 | 85 | 0 | 0.0 | 1.0 | 0.00 | 0.00 | 0.00 | 49 | 1012.3 |
| 20260906040043 | 86 | 0 | 0.0 | 3.0 | 0.00 | 0.00 | 0.00 | 48 | 1012.2 |
| 20260906034546 | 86 | 0 | 0.0 | 1.0 | 0.00 | 0.00 | 0.00 | 47 | 1012.4 |
| 20260906033038 | 87 | 0 | 0.0 | 2.0 | 0.00 | 0.00 | 0.00 | 45 | 1012.2 |
| 20260906031538 | 88 | 86 | 0.0 | 3.0 | 0.00 | 0.00 | 0.00 | 44 | 1012.5 |
| 20260906030039 | 88 | 0 | 1.0 | 6.0 | 0.00 | 0.00 | 0.00 | 43 | 1012.5 |
| 20260906024556 | 88 | 185 | 0.0 | 5.0 | 0.00 | 0.00 | 0.00 | 43 | 1012.4 |
| 20260906023042 | 89 | 125 | 0.0 | 4.0 | 0.00 | 0.00 | 0.00 | 42 | 1012.0 |
| 20260906021540 | 89 | 103 | 0.0 | 3.0 | 0.00 | 0.00 | 0.00 | 42 | 1011.8 |
| 20260906020049 | 90 | 0 | 0.0 | 6.0 | 0.00 | 0.00 | 0.00 | 41 | 1011.5 |
| 20260906014551 | 91 | 17 | 2.0 | 10.0 | 0.00 | 0.00 | 0.00 | 39 | 1011.4 |
| 20260906013044 | 92 | 40 | 1.0 | 6.0 | 0.00 | 0.00 | 0.00 | 37 | 1011.1 |
| 20260906011542 | 91 | 0 | 0.0 | 0.0 | 0.00 | 0.00 | 0.00 | 36 | 1010.4 |
| 20260906010042 | 92 | 0 | 0.0 | 1.0 | 0.00 | 0.00 | 0.00 | 34 | 1010.3 |
| 20260906004544 | 94 | 0 | 0.0 | 1.0 | 0.00 | 0.00 | 0.00 | 32 | 1010.3 |
| 20260906003050 | 94 | 0 | 0.0 | 2.0 | 0.00 | 0.00 | 0.00 | 31 | 1010.3 |
| 20260906001541 | 95 | 0 | 0.0 | 1.0 | 0.00 | 0.00 | 0.00 | 29 | 1010.4 |
| 20260906000042 | 95 | 0 | 0.0 | 2.0 | 0.00 | 0.00 | 0.00 | 29 | 1010.2 |
| 20260905234545 | 96 | 217 | 0.0 | 2.0 | 0.00 | 0.00 | 0.00 | 27 | 1010.2 |
| 20260905233040 | 96 | 221 | 0.0 | 2.0 | 0.00 | 0.00 | 0.00 | 27 | 1010.2 |
| 20260905231540 | 96 | 0 | 0.0 | 2.0 | 0.00 | 0.00 | 0.00 | 27 | 1010.2 |
| 20260905230039 | 96 | 0 | 0.0 | 3.0 | 0.00 | 0.00 | 0.00 | 27 | 1010.1 |
| 20260905224538 | 96 | 196 | 1.0 | 3.0 | 0.00 | 0.00 | 0.00 | 27 | 1010.2 |
| 20260905223039 | 96 | 207 | 1.0 | 3.0 | 0.00 | 0.00 | 0.00 | 27 | 1010.1 |